Location: Oberderdingen
(49.0645°N, 8.8003°E)
Time: 04:45:54
(UTC+00:00)

Daily predictions for brighter satellites

Satellite Brightness Start Highest point End
(mag) Time Altitude Azimuth Time Altitude Azimuth Time Altitude Azimuth
Cosmos 1331 Rocket 4.5 00:06:52 51° WNW 00:06:53 51° WNW 00:12:02 10° NNE
ATLAS 2AS CENTAUR R/B 3.0 00:09:45 41° W 00:12:01 60° NW 00:18:46 10° NE
IDEFIX/ARIANE 42P 4.0 00:11:49 10° NE 00:16:06 25° E 00:16:41 25° ESE
Meteor 1-5 Rocket 4.1 00:15:49 10° NNW 00:20:58 75° WNW 00:20:58 75° WNW
Cosmos 1953 Rocket 4.2 00:18:29 10° N 00:22:18 54° NE 00:22:18 54° NE
Cosmos 1980 Rocket 2.6 00:19:36 10° NW 00:24:20 49° W 00:24:20 49° W
USA 234 4.1 00:20:33 10° E 00:26:47 49° N 00:33:01 10° WNW
Cosmos 44 Rocket 4.1 00:29:47 44° E 00:29:47 44° E 00:34:08 10° NE
COSMOS 2406 4.0 00:32:29 39° ESE 00:32:56 39° ESE 00:38:15 10° NE
Cosmos 1825 Rocket 4.5 00:29:21 10° NNW 00:32:19 41° NW 00:32:19 41° NW
Meteor 2-10 4.2 00:30:42 10° NNW 00:36:02 67° W 00:36:02 67° W
Cosmos 2369 3.5 00:30:47 10° NNW 00:36:31 80° WSW 00:36:38 79° SW
Cosmos 1634 Rocket 4.1 00:35:56 55° SE 00:37:04 65° E 00:43:11 10° NNE
Cosmos 724 4.3 00:44:49 64° SSE 00:45:25 69° ESE 00:51:21 10° NE
Cosmos 2084 4.1 00:46:23 51° N 00:46:23 51° N 00:49:51 10° NE
Cosmos 1627 Rocket 4.4 00:41:20 10° NNW 00:47:36 73° W 00:48:29 63° SSW
Spot 1 4.3 00:43:37 10° NNE 00:47:07 63° NNE 00:47:07 63° NNE
Cosmos 1607 4.0 00:47:22 56° SSE 00:48:06 60° ESE 00:54:15 10° NE
Cosmos-2242 3.3 00:52:12 62° NE 00:52:12 62° NE 00:55:50 10° NNE
Cosmos 2360 Rocket 3.6 00:46:51 10° NNW 00:52:08 37° NE 00:57:23 10° ESE
Cosmos 2333 Rocket 2.7 00:47:44 10° NNW 00:53:20 58° NE 00:57:05 21° SE
USA 281 3.3 00:51:27 28° SE 00:55:09 77° ENE 01:01:44 10° NNW
Cosmos 2082 Rocket 2.2 00:59:24 62° WSW 01:00:14 72° WNW 01:05:59 10° NNE
Meteor 2-2 Rocket 4.2 01:02:52 62° S 01:03:50 81° E 01:09:29 10° NNE
Cosmos 2279 Rocket 4.0 01:03:59 49° SSE 01:05:44 74° E 01:11:59 10° NNE
Cosmos 2278 4.0 01:01:27 10° NNW 01:07:09 65° ENE 01:11:11 20° SE
Cosmos 2322 Rocket 3.0 01:02:05 10° NNW 01:07:35 49° NE 01:13:03 10° SE
Cosmos 1486 Rocket 4.1 01:02:44 10° NNW 01:07:58 75° ENE 01:09:36 44° SE
Cosmos 2221 3.6 01:07:40 32° ESE 01:08:11 33° E 01:11:55 10° NNE
NPP 4.1 01:03:17 10° NNE 01:08:34 53° E 01:09:56 42° SSE
Resurs 1-4 Rocket 4.1 01:05:05 10° NE 01:09:08 22° E 01:12:17 13° SE
NOSS 3-3 (A) 3.7 01:14:12 53° SSE 01:15:03 60° SE 01:21:05 10° NE
ACS3 Solar Sail 1.9 01:11:09 10° N 01:17:06 61° WNW 01:18:33 48° WSW
Cosmos 1777 Rocket 4.0 01:13:18 10° NNW 01:18:37 79° ENE 01:20:41 38° SSE
Cosmos 2219 Rocket 3.5 01:16:12 10° NNW 01:21:28 39° NE 01:26:44 10° ESE
SL-16 R/B 2.1 01:17:02 10° NNW 01:22:44 82° WSW 01:24:53 40° SSE
CZ-4C R/B 2.1 01:22:06 49° W 01:22:54 56° NW 01:28:25 10° NE
H-2A R/B 4.2 01:20:03 10° NE 01:23:46 20° E 01:27:32 10° SE
GP-B 3.8 01:19:45 10° NNW 01:23:25 39° WNW 01:23:25 39° WNW
Cosmos 1271 Rocket 3.5 01:27:38 39° E 01:27:38 39° E 01:30:52 10° NNE
Meteor 1-14 Rocket 4.2 01:24:11 10° N 01:29:57 81° ENE 01:32:37 33° SSE
ATLAS 3B R/B 3.9 01:24:04 10° WNW 01:29:24 26° W 01:29:24 26° W
SL-4 R/B 2.7 01:31:35 39° ESE 01:31:35 39° ESE 01:34:04 10° ESE
USA 267 3.8 01:25:28 10° ENE 01:31:45 46° SE 01:34:01 34° S
NOSS 3-3 (C) 3.8 01:30:27 49° S 01:31:46 66° SE 01:37:57 10° NE
Cosmos 2058 Rocket 3.4 01:32:04 50° WNW 01:32:07 50° WNW 01:36:25 10° N
Cosmos 2266 Rocket 4.0 01:29:23 10° N 01:35:33 79° E 01:39:09 26° SSE
Cosmos 1470 2.9 01:33:34 10° N 01:36:16 55° N 01:36:16 55° N
Gbstr 26 Del rocket 2.7 01:37:23 68° ESE 01:37:23 68° ESE 01:40:40 10° ESE
KORONAS-FOTON 4.3 01:38:28 43° NNW 01:38:28 43° NNW 01:41:01 10° N
USA 290 4.2 01:37:48 21° ESE 01:37:55 21° ESE 01:40:24 10° NE
Cosmos 909 Rocket 4.5 01:37:59 32° WSW 01:40:39 53° NW 01:46:59 10° NNE
Cosmos 1536 4.2 01:44:47 10° NNW 01:46:48 24° NW 01:46:48 24° NW
Cosmos 2333 4.4 01:42:30 10° NNW 01:48:11 73° ENE 01:53:53 10° SE
DMSP B5D2-2 4.2 01:45:23 18° SSE 01:49:19 72° ENE 01:54:30 10° N
Cosmos 1812 Rocket 3.6 01:49:34 46° SSE 01:50:46 73° E 01:55:06 10° NNE
Meteor 2-6 Rocket 4.3 01:49:06 41° SW 01:51:05 68° WNW 01:56:59 10° N
NOSS 3-4 (A) 4.1 01:46:18 10° NW 01:52:51 68° NE 02:00:38 10° SE
NOSS 3-4 (C) 4.1 01:46:50 10° NW 01:53:25 68° NE 02:01:11 10° SE
IDEFIX/ARIANE 42P 2.9 01:50:48 10° N 01:55:49 51° WNW 01:57:22 38° WSW
ISS -1.1 01:56:14 11° SE 01:56:14 11° SE 01:57:03 10° ESE
COSMOS 2441 4.3 01:53:07 10° NNE 01:57:56 87° ESE 01:59:44 39° SSW
Envisat 3.4 01:53:30 10° NNE 01:58:31 58° E 02:01:23 25° S
Aureole 1 Rocket 3.8 01:55:34 10° NNW 01:59:35 54° ENE 02:04:37 10° SE
Cosmos 1707 4.5 02:03:05 14° NW 02:03:05 14° NW 02:03:56 10° NNW
Cosmos 2084 Rocket 3.3 01:59:00 10° NW 02:03:13 88° NE 02:07:28 10° SE
ATLAS 2AS CENTAUR R/B 4.3 01:58:32 10° WNW 02:04:15 27° NNW 02:09:56 10° NE
Iridium 4 Rocket 3.3 02:03:00 30° S 02:05:23 81° E 02:10:29 10° N
MOZ.5/SAFIR/RUBIN 5/SL-8 3.7 02:05:32 37° SSW 02:07:14 61° WSW 02:11:52 10° NNW
Meteor 1-27 Rocket 4.3 02:03:31 17° S 02:07:59 59° E 02:13:49 10° NNE
H-2A R/B 2.3 02:06:25 24° SSE 02:08:27 71° ENE 02:12:02 10° N
USA 234 3.3 02:02:55 10° ESE 02:09:28 84° NNE 02:16:03 10° NW
Cosmos 1975 2.9 02:07:08 10° NNW 02:10:35 44° W 02:10:35 44° W
Cosmos 44 Rocket 4.4 02:08:21 24° W 02:10:44 38° NW 02:15:35 10° NNE
Cosmos 990 Rocket 3.8 02:06:10 10° NNW 02:11:17 72° WSW 02:15:53 13° SSE
ADEOS II 2.9 02:06:59 10° NNE 02:12:02 46° E 02:16:28 13° S
Cosmos 1763 Rocket 3.5 02:13:16 33° SSW 02:15:44 81° WNW 02:21:04 10° NNE
Cosmos 1238 Rocket 3.0 02:15:06 31° SE 02:15:59 43° E 02:18:51 10° NNE
ALOS 2.5 02:12:05 10° NNE 02:16:38 63° ESE 02:19:31 22° S
COSMOS 2406 3.9 02:14:30 26° WSW 02:17:12 42° NW 02:22:41 10° NNE
COSMOS 2428 4.2 02:15:08 10° NNW 02:20:29 39° NE 02:25:47 10° ESE
CZ-2D R/B 2.3 02:15:24 10° NNE 02:20:40 72° ESE 02:24:32 19° S
SL-16 R/B 3.8 02:15:22 10° SE 02:21:11 42° ENE 02:27:01 10° N
ADEOS Rocket 3.7 02:16:11 10° N 02:23:37 63° WNW 02:28:49 22° SW
Spot 2 4.3 02:23:25 10° SSE 02:28:13 83° WSW 02:33:12 10° NNW
Cosmos 1898 Rocket 4.1 02:24:15 10° NNW 02:29:22 60° ENE 02:34:28 10° SE
Cosmos 1354 Rocket 4.2 02:28:41 10° NNW 02:33:44 47° WSW 02:38:18 12° S
Cosmos 1937 Rocket 4.5 02:28:49 10° NNW 02:33:53 49° ENE 02:38:53 10° SE
Cosmos 2360 Rocket 2.5 02:30:51 10° NW 02:36:13 44° WSW 02:41:33 10° S
Cosmos 2333 Rocket 3.1 02:32:35 10° NW 02:37:16 27° WSW 02:39:00 23° SW
SL-19 R/B 4.5 02:32:15 10° NNE 02:37:56 77° ESE 02:43:25 13° SSW
Alouette 2 Rocket 3.1 02:33:58 10° NNW 02:38:07 79° WSW 02:41:39 10° S
USA 305 3.6 02:38:24 13° NNW 02:38:45 14° NNW 02:39:43 10° NNE
EP 1 4.1 02:37:32 10° NW 02:40:08 90° NNE 02:42:57 10° SE
USA 281 4.2 02:38:17 21° SW 02:40:15 25° W 02:45:29 10° NW
Meteor 2-10 Rocket 3.9 02:38:36 10° N 02:43:41 65° ENE 02:48:55 10° SSE
Cosmos 540 Rocket 3.7 02:41:18 23° SW 02:44:18 54° WNW 02:49:23 10° NNE
Cosmos 2221 3.7 02:43:58 21° W 02:45:16 25° WNW 02:48:42 10° NNW
Cosmos 2082 Rocket 4.1 02:41:24 10° W 02:45:22 19° NW 02:49:20 10° N
H-2A R/B 3.8 02:41:58 10° NE 02:45:27 28° E 02:48:52 10° SSE
Cosmos 1553 Rocket 4.4 02:41:23 10° S 02:47:29 64° E 02:53:42 10° NNE
USA 276 3.2 02:50:08 14° SE 02:50:08 14° SE 02:50:31 10° SE
Resurs 1-4 Rocket 2.2 02:44:04 10° N 02:49:19 63° WNW 02:53:20 17° SSW
Cosmos 468 Rocket 4.0 02:46:38 19° SSW 02:50:33 80° WNW 02:55:53 10° NNE
Cosmos 2322 Rocket 2.9 02:46:29 10° NW 02:51:24 32° WSW 02:56:19 10° SSW
BREEZE-M DEB (TANK) 3.1 02:50:12 16° W 02:52:32 81° SSW 03:00:57 10° ESE
DNEPR-1 R/B 4.3 02:49:20 10° NW 02:54:38 57° SW 03:01:05 10° SSE
Cosmos 1766 Rocket 3.7 02:53:01 10° NNW 02:57:15 51° W 03:01:25 10° S
Cosmos 1833 4.3 02:53:58 18° SW 02:58:14 66° WNW 03:03:55 10° NNE
ACS3 Solar Sail 3.7 02:55:39 10° NNW 02:58:21 13° NW 03:01:05 10° WNW
Cosmos 1271 Rocket 4.4 03:01:02 14° W 03:02:02 16° WNW 03:04:15 10° NNW
H-2A R/B 2.1 02:58:25 10° N 03:03:29 66° WNW 03:08:28 11° SSW
CRYOSAT 2 4.3 02:59:03 10° S 03:03:54 68° W 03:08:47 10° N
Cosmos 2219 Rocket 2.5 03:00:11 10° NW 03:05:27 42° WSW 03:10:43 10° S
Cosmos 2237 Rocket 3.9 03:00:12 10° NNW 03:05:30 37° NE 03:10:45 10° ESE
SL-16 R/B 3.8 03:03:03 10° WNW 03:05:53 14° W 03:06:38 14° WSW
SL-4 R/B 2.9 03:05:08 15° W 03:07:16 24° SW 03:10:20 10° SSE
Meteor 2-11 Rocket 4.5 03:01:57 10° NNW 03:08:04 66° W 03:14:08 10° S
SL-14 R/B 3.9 03:05:07 10° S 03:08:55 56° E 03:12:45 10° NNE
CZ-3 Stage 3 4.4 03:05:05 14° SW 03:11:38 32° SSE 03:32:20 10° ESE
USA 290 3.5 03:10:18 17° WSW 03:11:57 25° WNW 03:14:40 10° N
CZ-4C R/B 4.0 03:08:25 10° WNW 03:12:26 23° NNW 03:17:19 10° NE
ARGOS 3.3 03:09:06 10° NNE 03:14:31 76° ESE 03:19:52 10° S
USA 267 3.4 03:08:27 10° NE 03:15:01 74° NNW 03:21:22 11° WSW
Cosmos 1408 Rocket 4.1 03:11:10 10° N 03:15:27 61° E 03:19:39 10° SSE
Cosmos 1745 Rocket 4.4 03:10:00 10° N 03:16:10 67° ENE 03:22:14 10° SSE
METEOR-M 4.1 03:11:47 10° NNE 03:17:07 73° WNW 03:22:24 10° SSW
Gbstr 26 Del rocket 3.8 03:19:48 10° W 03:22:46 22° SW 03:25:44 10° SSE
Cosmos 2322 3.7 03:20:13 10° NNW 03:25:56 74° WSW 03:31:36 10° SSE
NOSS 3 (A) 4.1 03:29:15 10° NW 03:31:34 88° NE 03:34:34 10° SE
ISS -3.3 03:29:12 11° SW 03:32:18 52° SSE 03:35:37 10° ENE
Envisat 4.3 03:33:07 10° N 03:37:04 24° WNW 03:41:01 10° WSW
BREEZE-M DEB (TANK) 2.5 03:31:38 10° WSW 03:37:47 57° SSE 03:40:28 10° E
Meteor 2-4 Rocket 4.3 03:34:56 10° SW 03:39:53 37° WNW 03:44:51 10° N
Cosmos 1461 2.8 03:37:10 10° SW 03:40:51 58° NW 03:44:32 10° NNE
H-2A R/B 4.2 03:42:31 10° W 03:42:51 10° W 03:43:09 10° W
NOSS 3-4 (A) 4.4 03:37:24 10° NW 03:43:36 36° WSW 03:50:43 10° S
Meteor 1-28 Rocket 3.2 03:40:23 10° SSE 03:43:37 68° ENE 03:46:52 10° N
NOSS 3-4 (C) 4.4 03:37:55 10° NW 03:44:10 37° WSW 03:51:19 10° S
AQUA 3.9 03:40:05 10° N 03:44:42 60° WNW 03:49:17 10° SSW
Cosmos 1066 Rocket 4.5 03:40:08 10° SW 03:45:16 46° WNW 03:50:26 10° N
NOSS 0 Rocket 3.9 03:40:05 10° NNW 03:46:17 76° WSW 03:52:25 10° SSE
Cosmos 1151 Rocket 2.9 03:44:31 10° SSW 03:48:44 78° W 03:53:00 10° N
Cosmos 1500 Rocket 3.6 03:46:27 10° NNW 03:50:49 65° W 03:55:11 10° S
Cosmos 1842 Rocket 4.5 03:47:09 10° SW 03:50:57 30° WNW 03:54:48 10° N
ADEOS II 3.1 03:46:53 10° N 03:51:23 30° WNW 03:55:52 10° WSW
USA 234 3.8 03:47:00 10° SSE 03:52:55 36° SW 03:58:52 10° WNW
CZ-3 R/B 4.1 03:51:20 10° WSW 04:08:43 26° SSW 04:16:00 10° SSE
